When you browse on this site, cookies collect data to enhance your experience and personalize the content and advertising you see.
Visit our Privacy Policy to learn more. By continuing to use the site, you agree to this use of cookies and data.

Hourly Weather Aleksandrovka

Today, 13 July, Monday

Time Temperature Precipitation Wind Pressure Humidity
00:00 +24°C° 0.6 mm 3 mps 748 mmHg 92%
01:00 +24°C° 0 mm 3 mps 748 mmHg 90%
02:00 +23°C° 0 mm 2 mps 748 mmHg 87%
03:00 +23°C° 0 mm 2 mps 748 mmHg 89%
04:00 +23°C° 0 mm 2 mps 748 mmHg 89%
05:00 +24°C° 0 mm 2 mps 748 mmHg 89%
06:00 +24°C° 0 mm 2 mps 747 mmHg 89%
07:00 +26°C° 0 mm 2 mps 747 mmHg 81%
08:00 +27°C° 0 mm 2 mps 747 mmHg 73%
09:00 +29°C° 0 mm 2 mps 747 mmHg 64%
10:00 +30°C° 0 mm 2 mps 747 mmHg 58%
11:00 +32°C° 0 mm 2 mps 747 mmHg 52%
12:00 +34°C° 0 mm 3 mps 747 mmHg 46%
13:00 +35°C° 0 mm 3 mps 746 mmHg 42%
14:00 +36°C° 0 mm 3 mps 746 mmHg 38%
15:00 +37°C° 0 mm 2 mps 746 mmHg 35%
16:00 +35°C° 0 mm 3 mps 746 mmHg 40%
17:00 +34°C° 0 mm 3 mps 745 mmHg 44%
18:00 +32°C° 0 mm 4 mps 745 mmHg 49%
19:00 +29°C° 0 mm 4 mps 745 mmHg 55%
20:00 +28°C° 0 mm 4 mps 745 mmHg 60%
21:00 +26°C° 0 mm 4 mps 745 mmHg 66%
22:00 +26°C° 0 mm 4 mps 745 mmHg 64%
23:00 +25°C° 0 mm 3 mps 744 mmHg 62%

Tomorrow, 14 July, Tuesday

Time Temperature Precipitation Wind Pressure Humidity
00:00 +25°C° 0 mm 3 mps 744 mmHg 60%
01:00 +25°C° 0 mm 3 mps 744 mmHg 54%
02:00 +24°C° 0 mm 3 mps 744 mmHg 47%
03:00 +24°C° 0 mm 3 mps 744 mmHg 41%
04:00 +24°C° 0 mm 3 mps 744 mmHg 43%
05:00 +25°C° 0 mm 3 mps 744 mmHg 45%
06:00 +25°C° 0 mm 3 mps 744 mmHg 47%
07:00 +27°C° 0 mm 4 mps 744 mmHg 44%
08:00 +29°C° 0 mm 5 mps 744 mmHg 41%
09:00 +33°C° 0 mm 6 mps 744 mmHg 38%
10:00 +34°C° 0 mm 7 mps 744 mmHg 35%
11:00 +35°C° 0 mm 7 mps 744 mmHg 33%
12:00 +38°C° 0 mm 8 mps 744 mmHg 31%
13:00 +37°C° 0 mm 8 mps 744 mmHg 34%
14:00 +35°C° 0 mm 8 mps 744 mmHg 38%
15:00 +35°C° 0 mm 8 mps 745 mmHg 41%
16:00 +33°C° 0.1 mm 7 mps 745 mmHg 48%
17:00 +29°C° 0.1 mm 5 mps 745 mmHg 55%
18:00 +27°C° 0.1 mm 4 mps 745 mmHg 62%
19:00 +26°C° 0.1 mm 5 mps 746 mmHg 65%
20:00 +26°C° 0.1 mm 5 mps 746 mmHg 68%
21:00 +25°C° 0.1 mm 5 mps 746 mmHg 72%
22:00 +25°C° 0 mm 5 mps 746 mmHg 72%
23:00 +25°C° 0 mm 4 mps 746 mmHg 72%

Day after tomorrow, 15 July, Wednesday

Time Temperature Precipitation Wind Pressure Humidity
00:00 +24°C° 0 mm 3 mps 746 mmHg 72%
01:00 +24°C° 0.4 mm 3 mps 746 mmHg 76%
02:00 +23°C° 0.4 mm 2 mps 747 mmHg 80%
03:00 +23°C° 0.4 mm 2 mps 747 mmHg 84%
04:00 +23°C° 0 mm 2 mps 747 mmHg 84%
05:00 +23°C° 0 mm 2 mps 747 mmHg 84%
06:00 +22°C° 0 mm 3 mps 747 mmHg 84%
07:00 +23°C° 0 mm 4 mps 747 mmHg 79%
08:00 +25°C° 0 mm 4 mps 748 mmHg 74%
09:00 +26°C° 0 mm 5 mps 748 mmHg 69%
10:00 +26°C° 0 mm 6 mps 748 mmHg 63%
11:00 +26°C° 0 mm 6 mps 748 mmHg 56%
12:00 +27°C° 0 mm 6 mps 748 mmHg 50%
13:00 +27°C° 0 mm 6 mps 748 mmHg 50%
14:00 +27°C° 0 mm 7 mps 748 mmHg 49%
15:00 +27°C° 0 mm 7 mps 748 mmHg 49%
16:00 +26°C° 0 mm 6 mps 749 mmHg 52%
17:00 +24°C° 0 mm 6 mps 749 mmHg 56%
18:00 +23°C° 0 mm 5 mps 749 mmHg 60%
19:00 +21°C° 0 mm 4 mps 749 mmHg 65%
20:00 +20°C° 0 mm 3 mps 750 mmHg 69%
21:00 +19°C° 0 mm 2 mps 750 mmHg 74%
22:00 +18°C° 0 mm 2 mps 750 mmHg 74%
23:00 +18°C° 0 mm 2 mps 750 mmHg 75%

16 July, Thursday

Time Temperature Precipitation Wind Pressure Humidity
00:00 +17°C° 0 mm 2 mps 750 mmHg 76%
01:00 +17°C° 0 mm 2 mps 750 mmHg 76%
02:00 +17°C° 0 mm 2 mps 750 mmHg 77%
03:00 +16°C° 0 mm 2 mps 750 mmHg 78%
04:00 +17°C° 0 mm 2 mps 750 mmHg 77%
05:00 +17°C° 0 mm 2 mps 750 mmHg 77%
06:00 +18°C° 0 mm 2 mps 750 mmHg 76%
07:00 +19°C° 0 mm 3 mps 750 mmHg 69%
08:00 +21°C° 0 mm 3 mps 750 mmHg 61%
09:00 +22°C° 0 mm 4 mps 750 mmHg 54%
10:00 +23°C° 0 mm 4 mps 750 mmHg 53%
11:00 +25°C° 0 mm 4 mps 750 mmHg 51%
12:00 +25°C° 0 mm 4 mps 749 mmHg 49%
13:00 +25°C° 0 mm 4 mps 749 mmHg 49%
14:00 +26°C° 0 mm 4 mps 749 mmHg 50%
15:00 +26°C° 0 mm 4 mps 749 mmHg 50%
16:00 +25°C° 0 mm 4 mps 749 mmHg 52%
17:00 +25°C° 0 mm 3 mps 749 mmHg 55%
18:00 +24°C° 0 mm 3 mps 749 mmHg 57%
19:00 +22°C° 0 mm 3 mps 749 mmHg 61%
20:00 +20°C° 0 mm 3 mps 749 mmHg 65%
21:00 +19°C° 0 mm 3 mps 749 mmHg 69%
22:00 +18°C° 0 mm 3 mps 749 mmHg 73%
23:00 +18°C° 0 mm 4 mps 749 mmHg 76%

17 July, Friday

Time Temperature Precipitation Wind Pressure Humidity
00:00 +17°C° 0 mm 4 mps 749 mmHg 79%
01:00 +15°C° 0 mm 4 mps 749 mmHg 82%
02:00 +14°C° 0 mm 4 mps 749 mmHg 85%
03:00 +14°C° 0 mm 4 mps 749 mmHg 88%
04:00 +14°C° 0 mm 4 mps 749 mmHg 85%
05:00 +15°C° 0 mm 4 mps 749 mmHg 81%
06:00 +15°C° 0 mm 4 mps 749 mmHg 78%
07:00 +18°C° 0 mm 3 mps 749 mmHg 73%
08:00 +19°C° 0 mm 3 mps 749 mmHg 67%
09:00 +21°C° 0 mm 3 mps 749 mmHg 62%
10:00 +21°C° 0 mm 3 mps 749 mmHg 61%
11:00 +22°C° 0 mm 3 mps 749 mmHg 59%
12:00 +24°C° 0 mm 3 mps 749 mmHg 58%
13:00 +24°C° 0 mm 3 mps 749 mmHg 57%
14:00 +25°C° 0 mm 3 mps 749 mmHg 57%
15:00 +25°C° 0 mm 4 mps 749 mmHg 56%
16:00 +25°C° 0.1 mm 4 mps 749 mmHg 58%
17:00 +25°C° 0.1 mm 3 mps 749 mmHg 59%
18:00 +24°C° 0.1 mm 3 mps 749 mmHg 61%
19:00 +22°C° 0 mm 3 mps 749 mmHg 66%
20:00 +21°C° 0 mm 3 mps 749 mmHg 71%
21:00 +19°C° 0 mm 3 mps 749 mmHg 77%
22:00 +19°C° 0 mm 3 mps 749 mmHg 79%
23:00 +18°C° 0 mm 3 mps 749 mmHg 81%

18 July, Saturday

Time Temperature Precipitation Wind Pressure Humidity
00:00 +17°C° 0 mm 3 mps 749 mmHg 83%
01:00 +17°C° 0 mm 3 mps 750 mmHg 84%
02:00 +17°C° 0 mm 3 mps 750 mmHg 86%
03:00 +16°C° 0 mm 3 mps 750 mmHg 87%
04:00 +17°C° 0 mm 3 mps 750 mmHg 85%
05:00 +17°C° 0 mm 3 mps 750 mmHg 83%
06:00 +18°C° 0 mm 3 mps 750 mmHg 80%
07:00 +19°C° 0 mm 3 mps 750 mmHg 74%
08:00 +21°C° 0 mm 3 mps 750 mmHg 68%
09:00 +22°C° 0 mm 3 mps 751 mmHg 62%
10:00 +24°C° 0 mm 3 mps 750 mmHg 58%
11:00 +25°C° 0 mm 4 mps 750 mmHg 54%
12:00 +26°C° 0 mm 4 mps 750 mmHg 50%
13:00 +26°C° 0 mm 4 mps 750 mmHg 50%
14:00 +27°C° 0 mm 5 mps 750 mmHg 50%
15:00 +27°C° 0 mm 5 mps 750 mmHg 50%
16:00 +26°C° 0 mm 5 mps 750 mmHg 52%
17:00 +26°C° 0 mm 4 mps 750 mmHg 55%
18:00 +25°C° 0 mm 4 mps 750 mmHg 57%
19:00 +22°C° 0 mm 4 mps 750 mmHg 64%
20:00 +21°C° 0 mm 4 mps 750 mmHg 70%
21:00 +19°C° 0 mm 3 mps 750 mmHg 76%
22:00 +19°C° 0 mm 3 mps 750 mmHg 79%
23:00 +18°C° 0 mm 3 mps 750 mmHg 83%
Show more